Вернуться в каталог

STARLINK-6348

АктивенСвязьVLEO
NORAD 57360·PAYLOAD·🇺🇸 United States

Запущен Jul 16, 2023 с Cape Canaveral Space Force Station

Loading…

Ближайшие Пролёты (ближайшие 24 часа)

TLE

СвежийSource: CelesTrak SupGP

Эпоха: Sep 14, 2026, 21:56 UTC

1 57360C 23099AJ  26257.91437500  .00035984  00000+0  13028-2 0  2576
2 57360  43.0011 252.7218 0001565 266.9480  51.7670 15.27574178    15

Отслеживайте STARLINK-6348 в реальном времени с AllMySat

Download on the App Store